| time (UTC) | temp F | wind direction | speed MPH | gust MPH | rain 1hr in | rain 24hr in | rain mn in | humidity % | barometer mb |
| 20260503054604 | 70 | 0 | 0.0 | 2.0 | 0.00 | 0.00 | 0.00 | 57 | 1024.2 |
| 20260503053056 | 65 | 342 | 0.0 | 3.0 | 0.00 | 0.00 | 0.00 | 65 | 1024.2 |
| 20260503051600 | 65 | 0 | 0.0 | 2.0 | 0.00 | 0.00 | 0.00 | 63 | 1024.4 |
| 20260503050059 | 66 | 0 | 1.0 | 5.0 | 0.00 | 0.00 | 0.00 | 62 | 1024.6 |
| 20260503044553 | 66 | 90 | 1.0 | 6.0 | 0.00 | 0.00 | 0.00 | 63 | 1025.1 |
| 20260503043110 | 66 | 59 | 1.0 | 4.0 | 0.00 | 0.00 | 0.00 | 64 | 1025.2 |
| 20260503041609 | 65 | 102 | 1.0 | 7.0 | 0.00 | 0.00 | 0.00 | 66 | 1025.5 |
| 20260503034605 | 63 | 102 | 1.0 | 7.0 | 0.00 | 0.00 | 0.00 | 68 | 1025.9 |
| 20260503031555 | 61 | 63 | 1.0 | 4.0 | 0.00 | 0.00 | 0.00 | 74 | 1026.1 |
| 20260503030058 | 60 | 0 | 1.0 | 7.0 | 0.00 | 0.00 | 0.00 | 75 | 1026.3 |
| 20260503024555 | 60 | 109 | 1.0 | 6.0 | 0.00 | 0.00 | 0.00 | 77 | 1026.5 |
| 20260503023059 | 59 | 0 | 2.0 | 6.0 | 0.00 | 0.00 | 0.00 | 77 | 1026.6 |
| 20260503020052 | 57 | 73 | 1.0 | 5.0 | 0.00 | 0.00 | 0.00 | 82 | 1026.9 |
| 20260503014603 | 56 | 0 | 1.0 | 6.0 | 0.00 | 0.00 | 0.00 | 84 | 1026.9 |
| 20260503013056 | 55 | 128 | 1.0 | 6.0 | 0.00 | 0.00 | 0.00 | 86 | 1027.0 |
| 20260503011556 | 54 | 109 | 1.0 | 7.0 | 0.00 | 0.00 | 0.00 | 88 | 1027.0 |
| 20260503010055 | 53 | 92 | 2.0 | 5.0 | 0.00 | 0.00 | 0.00 | 90 | 1026.9 |
| 20260503004552 | 51 | 103 | 0.0 | 4.0 | 0.00 | 0.00 | 0.00 | 91 | 1026.9 |
| 20260503003053 | 49 | 89 | 1.0 | 5.0 | 0.00 | 0.00 | 0.00 | 91 | 1026.9 |
| 20260503001551 | 49 | 123 | 1.0 | 5.0 | 0.00 | 0.00 | 0.00 | 92 | 1026.7 |
| 20260503000054 | 47 | 0 | 0.0 | 0.0 | 0.00 | 0.00 | 0.00 | 93 | 1026.5 |
| 20260502234555 | 45 | 0 | 0.0 | 0.0 | 0.00 | 0.00 | 0.00 | 92 | 1026.4 |
| 20260502233054 | 43 | 0 | 0.0 | 0.0 | 0.00 | 0.00 | 0.00 | 92 | 1026.1 |
| 20260502231605 | 42 | 0 | 0.0 | 0.0 | 0.00 | 0.00 | 0.00 | 92 | 1026.0 |
| 20260502230054 | 42 | 0 | 0.0 | 0.0 | 0.00 | 0.00 | 0.00 | 92 | 1025.7 |
| 20260502224556 | 41 | 0 | 0.0 | 0.0 | 0.00 | 0.00 | 0.00 | 92 | 1025.5 |
| 20260502223057 | 41 | 0 | 0.0 | 0.0 | 0.00 | 0.00 | 0.00 | 92 | 1025.5 |
| 20260502221556 | 41 | 0 | 0.0 | 0.0 | 0.00 | 0.00 | 0.00 | 92 | 1025.4 |
| 20260502220104 | 42 | 0 | 0.0 | 0.0 | 0.00 | 0.00 | 0.00 | 92 | 1025.3 |
| 20260502214558 | 42 | 0 | 0.0 | 0.0 | 0.00 | 0.00 | 0.00 | 92 | 1025.2 |
| 20260502213055 | 42 | 0 | 0.0 | 0.0 | 0.00 | 0.00 | 0.00 | 92 | 1025.2 |
| 20260502211553 | 42 | 0 | 0.0 | 0.0 | 0.00 | 0.00 | 0.00 | 92 | 1025.0 |
| 20260502210101 | 42 | 0 | 0.0 | 0.0 | 0.00 | 0.00 | 0.00 | 92 | 1024.9 |
| 20260502204552 | 43 | 0 | 0.0 | 0.0 | 0.00 | 0.00 | 0.00 | 92 | 1024.8 |
| 20260502203053 | 42 | 0 | 0.0 | 0.0 | 0.00 | 0.00 | 0.00 | 92 | 1024.7 |
| 20260502201603 | 43 | 0 | 0.0 | 0.0 | 0.00 | 0.00 | 0.00 | 92 | 1024.6 |
| 20260502200106 | 43 | 0 | 0.0 | 0.0 | 0.00 | 0.00 | 0.00 | 91 | 1024.5 |
| 20260502194612 | 43 | 0 | 0.0 | 0.0 | 0.00 | 0.00 | 0.00 | 91 | 1024.5 |
| 20260502193056 | 43 | 0 | 0.0 | 0.0 | 0.00 | 0.00 | 0.00 | 91 | 1024.6 |
| 20260502191554 | 43 | 0 | 0.0 | 0.0 | 0.00 | 0.00 | 0.00 | 91 | 1024.7 |
| 20260502190105 | 43 | 0 | 0.0 | 0.0 | 0.00 | 0.00 | 0.00 | 91 | 1024.7 |
| 20260502184559 | 44 | 0 | 0.0 | 0.0 | 0.00 | 0.00 | 0.00 | 91 | 1024.6 |
| 20260502183056 | 44 | 0 | 0.0 | 0.0 | 0.00 | 0.00 | 0.00 | 91 | 1024.7 |
| 20260502181558 | 44 | 0 | 0.0 | 0.0 | 0.00 | 0.00 | 0.00 | 91 | 1024.7 |
| 20260502180125 | 44 | 0 | 0.0 | 0.0 | 0.00 | 0.00 | 0.00 | 91 | 1024.6 |
| 20260502163056 | 46 | 0 | 0.0 | 0.0 | 0.00 | 0.00 | 0.00 | 90 | 1024.4 |
| 20260502161559 | 46 | 0 | 0.0 | 0.0 | 0.00 | 0.00 | 0.00 | 89 | 1024.4 |
| 20260502151608 | 47 | 0 | 0.0 | 0.0 | 0.00 | 0.00 | 0.00 | 88 | 1024.9 |
| 20260502130103 | 50 | 0 | 0.0 | 0.0 | 0.00 | 0.00 | 0.00 | 85 | 1024.6 |
| 20260502123101 | 51 | 0 | 0.0 | 0.0 | 0.00 | 0.00 | 0.00 | 83 | 1024.6 |
| 20260502121603 | 52 | 0 | 0.0 | 0.0 | 0.00 | 0.00 | 0.00 | 83 | 1024.6 |
| 20260502114602 | 52 | 0 | 0.0 | 0.0 | 0.00 | 0.00 | 0.00 | 83 | 1024.5 |
| 20260502113056 | 52 | 0 | 0.0 | 0.0 | 0.00 | 0.00 | 0.00 | 81 | 1024.4 |
| 20260502111602 | 53 | 0 | 0.0 | 0.0 | 0.00 | 0.00 | 0.00 | 80 | 1024.3 |
| 20260502110053 | 54 | 0 | 0.0 | 0.0 | 0.00 | 0.00 | 0.00 | 78 | 1024.3 |
| 20260502104558 | 54 | 0 | 0.0 | 0.0 | 0.00 | 0.00 | 0.00 | 76 | 1024.3 |
| 20260502103106 | 55 | 0 | 0.0 | 0.0 | 0.00 | 0.00 | 0.00 | 75 | 1024.1 |
| 20260502101620 | 56 | 0 | 0.0 | 0.0 | 0.00 | 0.00 | 0.00 | 73 | 1024.0 |
| 20260502100116 | 57 | 0 | 0.0 | 1.0 | 0.00 | 0.00 | 0.00 | 71 | 1023.9 |
| 20260502080105 | 63 | 91 | 0.0 | 6.0 | 0.00 | 0.00 | 0.00 | 55 | 1023.5 |
| 20260502070053 | 64 | 171 | 2.0 | 8.0 | 0.00 | 0.00 | 0.00 | 53 | 1023.5 |